星链-32792 (STARLINK-32792)

导读

STARLINK-32792是美国SpaceX星链星座中的一颗卫星,于2025年1月6日发射。星链星座旨在构建全球卫星互联网,为偏远地区、海上空中等场景提供高速宽带接入服务,该卫星入轨后将进一步扩充星座规模,提升星座网络覆盖范围与服务能力,推动全球互联网普及进程。

基本信息
目录编号:
62504
目录名称:
STARLINK-32792
国际标识:
2025-003T
轨道中心:
EARTH
卫星名称:
星链-32792
卫星全名:
星链-32792 (STARLINK-32792)
卫星状态:
在轨 (已飞行607 天)
发射日期:
2025-01-06 UTC
国别 :
美国 (US)
星等 :
--
轨道信息
数据来源 国际轨道数据
星历时间: 2026-09-05T00:46:36+0800
14小时前
查看轨道信息
半长轴: 6861.146km
偏心率: 0.0001977
轨道倾角: 43.005°
近地点辐角 270.384°
升交点赤经 357.591°
平近点角 89.679°
近地点: 481.652km
远地点: 484.366km
周期: 94.266分钟
每日圈数: 15.275934
详细信息
固有亮度:
5
最大亮度:
2.5
卫星平台:
Starlink V1.0
覆盖范围:
全球
运营商:
太空探索技术公司
运营商所在国:
美国
制造商(研发单位):
太空探索技术公司
制造商所在国:
美国
使用方式:
暂无
卫星简介
Starlink 计划是 SpaceX 推出的全球卫星互联网项目,通过发射低轨道卫星,为全球尤其是偏远地区提供高速、低延迟的互联网服务。自 2019 年起,Starlink 已部署数千颗卫星,旨在缩小全球数字鸿沟,推动互联网普及。该项目还为军事、航空等行业提供通信支持,带来广泛经济效益。
2D轨道图
3D轨道图
轨道高度分析图
轨道倾角分析图
轨道综合分析图
查看轨道综合分析图